AAL480 KPHX-KSAN

Flight info

Callsign AAL480
Flight time N/A
Altitude 34000
Route FYRBD1 MOHAK J2 HOGGZ LUCKI1
Aircraft A321/M-SDE3FGHIRWY/LB1

Departure

Time 2026-05-04 22:07
Airport Phoenix Sky Harbor International Airport (KPHX)

Arrival

Time N/A
Airport San Diego International Airport (KSAN)
Time Latitude Longitude Altitude Speed Heading
2026-05-04 21:04 33.43719 -111.99979 1131 ft 0 kts 93°
2026-05-04 21:32 33.43719 -111.99980 1131 ft 0 kts 93°
2026-05-04 21:58 33.43719 -111.99981 1131 ft 2 kts 94°
2026-05-04 21:58 33.43709 -111.99975 1131 ft 4 kts 138°
2026-05-04 21:58 33.43718 -111.99998 1131 ft 4 kts 84°
2026-05-04 21:59 33.43710 -112.00023 1131 ft 4 kts 33°
2026-05-04 21:59 33.43688 -112.00032 1131 ft 2 kts
2026-05-04 21:59 33.43686 -112.00032 1131 ft 1 kts
2026-05-04 22:01 33.43687 -112.00032 1131 ft 0 kts 360°
2026-05-04 22:01 33.43698 -112.00032 1131 ft 4 kts 360°
2026-05-04 22:01 33.43746 -112.00032 1131 ft 9 kts 360°
2026-05-04 22:01 33.43812 -112.00032 1131 ft 10 kts
2026-05-04 22:02 33.43884 -112.00023 1131 ft 11 kts 29°
2026-05-04 22:02 33.43904 -111.99941 1133 ft 11 kts 92°
2026-05-04 22:02 33.43903 -111.99841 1131 ft 13 kts 89°
2026-05-04 22:02 33.43905 -111.99718 1132 ft 16 kts 88°
2026-05-04 22:03 33.43906 -111.99572 1132 ft 18 kts 91°
2026-05-04 22:03 33.43904 -111.99425 1132 ft 18 kts 90°
2026-05-04 22:03 33.43905 -111.99297 1132 ft 14 kts 90°
2026-05-04 22:03 33.43853 -111.99229 1133 ft 14 kts 175°
2026-05-04 22:04 33.43747 -111.99228 1133 ft 17 kts 180°
2026-05-04 22:04 33.43624 -111.99229 1132 ft 19 kts 180°
2026-05-04 22:04 33.43486 -111.99229 1134 ft 20 kts 180°
2026-05-04 22:04 33.43352 -111.99229 1139 ft 18 kts 180°
2026-05-04 22:05 33.43240 -111.99239 1135 ft 15 kts 203°
2026-05-04 22:05 33.43191 -111.99285 1133 ft 7 kts 221°
2026-05-04 22:05 33.43152 -111.99326 1135 ft 9 kts 222°
2026-05-04 22:05 33.43106 -111.99397 1136 ft 9 kts 260°
2026-05-04 22:06 33.43103 -111.99440 1136 ft 19 kts 268°
2026-05-04 22:06 33.43104 -111.99915 1134 ft 93 kts 270°
2026-05-04 22:06 33.43105 -112.00941 1131 ft 151 kts 270°
2026-05-04 22:06 33.43102 -112.02281 1595 ft 160 kts 270°
2026-05-04 22:07 33.43059 -112.03612 2288 ft 160 kts 267°
2026-05-04 22:07 33.42985 -112.04936 2892 ft 161 kts 266°
2026-05-04 22:07 33.42909 -112.06354 3130 ft 181 kts 266°
2026-05-04 22:07 33.42754 -112.07931 3266 ft 200 kts 251°
2026-05-04 22:08 33.42234 -112.09527 3385 ft 219 kts 247°
2026-05-04 22:08 33.41650 -112.11322 3513 ft 245 kts 248°
2026-05-04 22:08 33.41022 -112.13291 3960 ft 259 kts 248°
2026-05-04 22:08 33.40383 -112.15326 4665 ft 263 kts 248°
2026-05-04 22:09 33.39632 -112.17329 5393 ft 265 kts 232°
2026-05-04 22:09 33.38184 -112.18664 6089 ft 269 kts 199°
2026-05-04 22:09 33.36318 -112.18834 6802 ft 275 kts 173°
2026-05-04 22:09 33.34481 -112.18256 7509 ft 279 kts 163°
2026-05-04 22:10 33.32662 -112.17406 8249 ft 282 kts 160°
2026-05-04 22:10 33.30836 -112.16512 8966 ft 285 kts 161°
2026-05-04 22:10 33.28977 -112.15675 9634 ft 286 kts 167°
2026-05-04 22:10 33.27029 -112.15527 10278 ft 281 kts 195°
2026-05-04 22:11 33.25255 -112.16554 10517 ft 295 kts 224°
2026-05-04 22:11 33.24116 -112.18666 10646 ft 317 kts 252°
2026-05-04 22:11 33.23699 -112.21340 10810 ft 337 kts 259°
2026-05-04 22:11 33.23138 -112.24040 11265 ft 343 kts 248°
2026-05-04 22:12 33.22011 -112.26540 12003 ft 342 kts 237°
2026-05-04 22:12 33.20665 -112.28887 12783 ft 343 kts 234°
2026-05-04 22:12 33.19232 -112.31165 13534 ft 344 kts 233°
2026-05-04 22:12 33.17754 -112.33414 14240 ft 345 kts 232°
2026-05-04 22:13 33.16259 -112.35663 14901 ft 347 kts 232°
2026-05-04 22:13 33.14755 -112.37931 15543 ft 349 kts 233°
2026-05-04 22:13 33.13252 -112.40217 16179 ft 351 kts 233°
2026-05-04 22:13 33.11750 -112.42522 16828 ft 353 kts 233°
2026-05-04 22:14 33.10265 -112.44814 17435 ft 355 kts 234°
2026-05-04 22:14 33.08756 -112.47151 18048 ft 357 kts 234°
2026-05-04 22:14 33.07242 -112.49504 18650 ft 359 kts 234°
2026-05-04 22:14 33.05719 -112.51868 19257 ft 360 kts 234°
2026-05-04 22:15 33.04183 -112.54243 19837 ft 362 kts 233°
2026-05-04 22:15 33.02639 -112.56625 20398 ft 364 kts 233°
2026-05-04 22:15 33.01086 -112.59014 20914 ft 366 kts 233°
2026-05-04 22:15 32.99546 -112.61381 21394 ft 368 kts 233°
2026-05-04 22:16 32.97976 -112.63792 21879 ft 369 kts 233°
2026-05-04 22:16 32.96525 -112.66321 22326 ft 371 kts 241°
2026-05-04 22:16 32.95516 -112.69155 22746 ft 375 kts 251°
2026-05-04 22:16 32.94983 -112.72205 23162 ft 379 kts 258°
2026-05-04 22:17 32.94575 -112.75310 23578 ft 381 kts 258°
2026-05-04 22:17 32.94160 -112.78431 23975 ft 383 kts 257°
2026-05-04 22:17 32.93737 -112.81566 24369 ft 384 kts 257°
2026-05-04 22:17 32.93315 -112.84672 24747 ft 386 kts 257°
2026-05-04 22:18 32.92884 -112.87830 25148 ft 387 kts 257°
2026-05-04 22:18 32.92453 -112.90998 25536 ft 388 kts 257°
2026-05-04 22:18 32.92022 -112.94173 25928 ft 389 kts 257°
2026-05-04 22:18 32.91591 -112.97357 26313 ft 390 kts 257°
2026-05-04 22:19 32.91156 -113.00545 26679 ft 391 kts 257°
2026-05-04 22:19 32.90719 -113.03738 27037 ft 391 kts 257°
2026-05-04 22:19 32.90279 -113.06937 27366 ft 392 kts 257°
2026-05-04 22:19 32.89844 -113.10105 27695 ft 394 kts 257°
2026-05-04 22:20 32.89402 -113.13320 28028 ft 394 kts 257°
2026-05-04 22:20 32.88962 -113.16547 28370 ft 395 kts 257°
2026-05-04 22:20 32.88522 -113.19774 28693 ft 396 kts 257°
2026-05-04 22:20 32.88078 -113.23010 29030 ft 396 kts 257°
2026-05-04 22:21 32.87635 -113.26238 29485 ft 394 kts 257°
2026-05-04 22:21 32.87193 -113.29437 29956 ft 390 kts 257°
2026-05-04 22:21 32.86751 -113.32608 30425 ft 387 kts 257°